Regional Weather Roundup
Issued by NWS

Home | Current Version | Previous Version | Text Only | Print | Product List | Glossary On
Versions: 1 2 3 4 5 6 7 8 9 10 11 12 13 14 15 16 17 18 19 20 21 22 23 24 25 26 27 28 29 30 31 32 33 34 35 36 37 38 39 40 41 42 43 44 45 46 47 48 49 50
000
ASUS43 KDTX 190901
RWRMI
MICHIGAN HOURLY REGIONAL WEATHER ROUNDUP
NATIONAL WEATHER SERVICE DETROIT/PONTIAC MI
500 AM EDT THU OCT 19 2017

NOTE: "FAIR" INDICATES FEW OR NO CLOUDS BELOW 12,000 FEET WITH NO
SIGNIFICANT WEATHER AND/OR OBSTRUCTION TO VISIBILITY.

MIZ047>049-052>055-059>063-066>070-074>076-081>083-191000-
SOUTHEAST LOWER MICHIGAN

CITY           SKY/WX    TMP DP  RH WIND       PRES   REMARKS
ADRIAN         CLEAR     48  42  80 SW7       30.08
ALMA           MOCLDY    55  43  62 SW12      29.97S
ANN ARBOR      CLEAR     46  42  86 S5        30.05F
BAD AXE        PTCLDY    58  42  54 SW10G20   29.95S
CARO           PTCLDY    55  42  61 S9        29.96S
DETROIT CITY   CLEAR     55  44  66 SW12      30.06S
DETROIT        CLEAR     53  44  71 SW13      30.07F
FLINT          PTCLDY    55  44  66 SW12      30.00F
GROSSE ILE     CLEAR     55  44  68 SW8       30.06F
HILLSDALE      CLEAR     52  43  71 SW8       30.07S
HOWELL         PTCLDY    55  45  68 SW6       30.03S

CITY           SKY/WX    TMP DP  RH WIND       PRES   REMARKS
JACKSON        PTCLDY    55  44  66 SW15      30.04F
LAMBERTVILLE   CLEAR     56  44  63 SW9       30.08F
LANSING        MOCLDY    55  43  63 SW12      30.01F
LAPEER         FAIR      55  43  63 SW14      30.00S
MASON          PTCLDY    56  45  64 SW8       30.03S
MONROE         CLEAR     58  43  57 SW13      30.07F
MT. CLEMENS    CLEAR     55  44  66 SW13      30.02F
PONTIAC        PTCLDY    51  43  74 S6        30.03F
PORT HOPE        N/A     59  43  55 SW10G21   29.91F
PORT HURON     CLEAR     57  43  58 SW8       30.02F
TRI CITIES     MOCLDY    57  46  66 SW17      29.96F
MIDLAND        FAIR      56  44  64 SW7       29.94S
TROY           CLEAR     54  42  64 SW10G16   30.06F
SAGINAW HB     CLOUDY    55  45  67 SW15G21   29.95F
$$
MIZ043>046-050>051-056>058-064>065-071>073-077>080-191000-
SOUTHWEST LOWER MICHIGAN

CITY           SKY/WX    TMP DP  RH WIND       PRES   REMARKS
BATTLE CREEK   PTCLDY    53  45  74 SW14      30.04F
BENTON HARBOR  CLEAR     56  45  66 SW9       30.04S
BIG RAPIDS     CLEAR     55  46  70 W12       29.94S
COLDWATER      PTCLDY    52  44  73 SW7       30.07S
FREMONT        FAIR      59  48  67 W9        29.97S
HOLLAND        CLEAR     60  51  72 W15       30.02R
GRAND RAPIDS   CLEAR     55  47  74 SW12      30.00S
IONIA          FAIR      56  45  64 SW14      29.99S
KALAMAZOO      PTCLDY    51  43  74 S9        30.04F
LUDINGTON      PTCLDY    59  47  65 W8        29.95S
MARSHALL       PTCLDY    52  44  73 SW8       30.05R
MOUNT PLEASANT PTCLDY    58  45  60 SW10      29.94S
MUSKEGON       CLEAR     62  50  64 SW15G24   29.99S
SOUTH HAVEN    PTCLDY    60  47  63 SW12G17   30.03S
$$
MIZ016>042-191000-
NORTHERN LOWER MICHIGAN

CITY           SKY/WX    TMP DP  RH WIND       PRES   REMARKS
ALPENA         CLEAR     60  46  59 SW13G22   29.85S
BEAVER ISLAND  CLEAR     57  31  37 W12G17    29.87R
BELLAIRE       CLEAR     60  47  63 SW5       29.88R
CADILLAC       CLOUDY    57  45  64 W9        29.92S
CHARLEVOIX     CLEAR     58  45  60 W16G22    29.89R
FRANKFORT      CLOUDY    60  44  54 W14G22    29.92R
GAYLORD        CLEAR     55  44  66 W14       29.86S
GRAYLING       CLEAR     55  44  64 W7        29.89S
HARBOR SPRINGS CLEAR     59  49  69 W8        29.84R
HOUGHTON LAKE  PTCLDY    55  46  71 SW9       29.91S
MANISTEE       CLOUDY    59  46  62 W15       29.93R
OSCODA         CLOUDY    55  42  61 SW13      29.89S
PELLSTON       CLEAR     59  48  67 W13G23    29.84R
ROGERS CITY    CLEAR     56  45  65 SW7       29.83R
TRAVERSE CITY  PTCLDY    61  47  59 W8        29.89R
$$
MIZ007>008-015-191000-
EASTERN UPPER MICHIGAN

CITY           SKY/WX    TMP DP  RH WIND       PRES   REMARKS
KINROSS        PTCLDY    53  28  38 W10       29.82R
MACKINAC ISLAN PTCLDY    58  41  54 NW8       29.82S
NEWBERRY       PTCLDY    47  32  54 W8        29.84R
S. S. MARIE    CLEAR     56  34  43 W14G21    29.80R
MUNISING         N/A     51  25  36 VRB6      29.85R
$$
MIZ004>006-011>014-085-191000-
CENTRAL UPPER MICHIGAN

CITY           SKY/WX    TMP DP  RH WIND       PRES   REMARKS
MANISTIQUE     CLOUDY    48  25  40 W5        29.87R
ESCANABA       PTCLDY    47  27  45 W6        29.90R
MENOMINEE      CLOUDY    53  24  32 VRB3      29.95R
SAWYER-GWINN   PTCLDY    46  22  39 SW6       29.88R
$$
MIZ001>003-009>011-084-191000-
WESTERN UPPER MICHIGAN

CITY           SKY/WX    TMP DP  RH WIND       PRES   REMARKS
IRON MOUNTAIN  PTCLDY    50  17  27 W8        29.90R
HOUGHTON       LGT RAIN  52  28  39 W29G39    29.79S
COPPER HARBOR    N/A     54  25  32 NW15G28   29.76S
IRONWOOD       CLOUDY    48  21  34 W15       29.91S
$$

ABBREVIATIONS USED IN REMARKS
   TC - TEMPERATURE IN CELSIUS
  WCI - WIND CHILL INDEX
   HX - HEAT INDEX
  VSB - VISIBILITY





USA.gov is the U.S. government's official web portal to all federal, state and local government web resources and services.